This demonstration page uses our WeatherBlox Daily Observations layout. Learn more.

Left ArrowRight Arrow

53.62937, 11.41316

Hourly Observations for September 11, 2021

Temp ( °F °C ) Dew Point ( °F °C ) Humidity (%) Winds ( mph kmh ) Pressure ( in mb ) Visibility ( mi km ) Precip ( " mm )
7:50 am 07:50 Cloudy with Mist and Fog 63 17 63 17 100 100 SSW 7 11 29.94 1014 2 3 N/A
8:20 am 08:20 Cloudy with Mist and Fog 63 17 63 17 100 100 SW 6 9 29.94 1014 2 3 N/A
8:50 am 08:50 Mostly Cloudy 63 17 63 17 100 100 SSW 9 15 29.94 1014 3 5 N/A
9:20 am 09:20 Mostly Cloudy 64 18 64 18 100 100 SSW 5 7 29.94 1014 5 8 N/A
9:50 am 09:50 Mostly Cloudy 64 18 64 18 100 100 S 3 6 29.94 1014 6 9 N/A
10:20 am 10:20 Mostly Cloudy 64 18 64 18 100 100 S 3 6 29.94 1014 4 7 N/A
10:50 am 10:50 Mostly Cloudy 66 19 64 18 94 94 S 6 9 29.97 1015 4 7 N/A
11:20 am 11:20 Mostly Cloudy 66 19 64 18 94 94 S 6 9 29.97 1015 30 48 N/A
11:50 am 11:50 Mostly Cloudy 66 19 64 18 94 94 S 6 9 29.97 1015 6 9 N/A
12:20 pm 12:20 Mostly Cloudy 68 20 64 18 88 88 S 6 9 29.94 1014 30 48 N/A
12:50 pm 12:50 Mostly Cloudy with Light Showers 68 20 64 18 88 88 SSW 7 11 29.94 1014 30 48 N/A
1:20 pm 13:20 Partly Cloudy with Showers Nearby 66 19 64 18 94 94 S 7 11 29.94 1014 30 48 N/A
1:50 pm 13:50 Partly Cloudy 70 21 64 18 83 83 S 9 15 29.94 1014 30 48 N/A
2:20 pm 14:20 Partly Cloudy 72 22 64 18 78 78 SW 9 15 29.94 1014 30 48 N/A
2:50 pm 14:50 Partly Cloudy 70 21 63 17 78 78 SW 9 15 29.94 1014 30 48 N/A
3:20 pm 15:20 Partly Cloudy 72 22 63 17 73 73 SSW 10 17 29.94 1014 30 48 N/A
3:50 pm 15:50 Partly Cloudy 70 21 63 17 78 78 SW 9 15 29.94 1014 30 48 N/A
4:20 pm 16:20 Mostly Sunny 72 22 63 17 73 73 SSW 12 19 29.94 1014 30 48 N/A
4:50 pm 16:50 Mostly Cloudy 70 21 61 16 73 73 SSW 13 20 29.94 1014 30 48 N/A
5:20 pm 17:20 Mostly Sunny 70 21 61 16 73 73 SSW 12 19 29.94 1014 30 48 N/A
5:50 pm 17:50 Partly Cloudy 70 21 61 16 73 73 SW 8 13 29.94 1014 30 48 N/A
6:20 pm 18:20 Partly Cloudy 68 20 61 16 78 78 SW 8 13 29.94 1014 30 48 N/A
6:50 pm 18:50 Partly Cloudy 68 20 61 16 78 78 SSW 7 11 29.94 1014 30 48 N/A
7:20 pm 19:20 Partly Cloudy 66 19 61 16 83 83 SSW 9 15 29.94 1014 30 48 N/A
7:50 pm 19:50 Mostly Clear 66 19 61 16 83 83 SSW 7 11 29.94 1014 7 11 N/A
8:20 pm 20:20 Mostly Clear 64 18 63 17 94 94 SSW 6 9 29.94 1014 30 48 N/A
8:50 pm 20:50 Partly Cloudy 64 18 63 17 94 94 S 5 7 29.94 1014 30 48 N/A

Powered by AerisWeather